EW0182 Weather Reports


Display with metric or nautical units.
time (UTC)temp
F
wind
direction
speed
MPH
gust
MPH
rain 1hr
in
rain 24hr
in
rain mn
in
humidity
%
barometer
mb
20260508064522 47 236 2.0 5.0 0.00 0.00 0.00 71 1012.0
20260508063015 46 238 0.0 0.0 0.00 0.00 0.00 72 1011.8
20260508061512 45 215 0.0 1.0 0.00 0.00 0.00 77 1011.9
20260508060012 44 148 0.0 0.0 0.00 0.00 0.00 78 1012.0
20260508054510 45 148 0.0 0.0 0.00 0.00 0.00 76 1012.1
20260508053009 46 148 0.0 0.0 0.00 0.00 0.00 75 1012.2
20260508051507 46 148 0.0 0.0 0.00 0.00 0.00 73 1012.4
20260508050010 47 184 0.0 0.0 0.00 0.00 0.00 70 1012.3
20260508044505 47 232 0.0 0.0 0.00 0.00 0.00 68 1012.5
20260508043003 46 266 0.0 0.0 0.00 0.00 0.00 69 1012.5
20260508041600 46 288 0.0 0.0 0.00 0.00 0.00 71 1012.5
20260508040055 44 286 0.0 0.0 0.00 0.00 0.00 77 1012.5
20260508034555 41 12 0.0 0.0 0.00 0.00 0.00 85 1012.5
20260508033055 40 13 0.0 0.0 0.00 0.00 0.00 85 1012.6
20260508031556 40 279 0.0 0.0 0.00 0.00 0.00 84 1012.3
20260508030054 41 278 0.0 0.0 0.00 0.00 0.00 82 1012.2
20260508024553 41 278 0.0 0.0 0.00 0.00 0.00 81 1012.3
20260508023052 41 278 0.0 0.0 0.00 0.00 0.00 79 1012.2
20260508021554 41 278 0.0 0.0 0.00 0.00 0.00 79 1012.4
20260508020103 42 278 0.0 0.0 0.00 0.00 0.00 77 1012.2
20260508014552 42 278 0.0 0.0 0.00 0.00 0.00 74 1012.1
20260508013050 43 278 0.0 0.0 0.00 0.00 0.00 72 1012.1
20260508011552 45 279 0.0 0.0 0.00 0.00 0.00 69 1011.9
20260508010100 46 278 0.0 0.0 0.00 0.00 0.00 62 1011.9
20260508004548 48 278 0.0 0.0 0.00 0.00 0.00 59 1011.8
20260508003051 50 278 0.0 0.0 0.00 0.00 0.00 56 1011.6
20260508001551 51 115 0.0 0.0 0.00 0.00 0.00 53 1011.4
20260508000048 52 314 0.0 1.0 0.00 0.00 0.00 49 1011.2
20260507234546 53 67 0.0 0.0 0.00 0.00 0.00 50 1011.1
20260507233045 53 289 0.0 0.0 0.00 0.00 0.00 50 1011.1
20260507231544 54 123 0.0 0.0 0.00 0.00 0.00 50 1011.1
20260507230058 55 287 0.0 1.0 0.00 0.00 0.00 45 1011.1
20260507224544 57 256 0.0 0.0 0.00 0.00 0.00 46 1011.0
20260507223130 57 271 0.0 0.0 0.00 0.00 0.00 46 1011.1
20260507221542 57 284 0.0 5.0 0.00 0.00 0.00 45 1011.0
20260507220042 56 298 0.0 2.0 0.00 0.00 0.00 45 1010.9
20260507214548 58 278 0.0 9.0 0.00 0.00 0.00 43 1010.7
20260507213039 57 314 0.0 13.0 0.00 0.00 0.00 45 1010.5
20260507211539 57 318 0.0 1.0 0.00 0.00 0.00 47 1010.5
20260507210042 58 19 0.0 9.0 0.00 0.00 0.00 45 1010.3
20260507204541 59 276 0.0 10.0 0.00 0.00 0.00 43 1010.1
20260507203040 59 13 0.0 0.0 0.00 0.00 0.00 42 1010.0
20260507201540 59 178 0.0 3.0 0.00 0.00 0.00 44 1010.2
20260507200051 59 274 0.0 10.0 0.00 0.00 0.00 43 1010.2
20260507194532 59 322 1.0 8.0 0.00 0.00 0.00 44 1010.4
20260507193042 59 8 0.0 1.0 0.00 0.00 0.00 44 1010.5
20260507191530 60 287 0.0 1.0 0.00 0.00 0.00 43 1010.6
20260507190035 58 263 0.0 6.0 0.00 0.00 0.00 46 1010.6
20260507184528 59 18 0.0 0.0 0.00 0.00 0.00 44 1010.6
20260507183035 58 193 0.0 5.0 0.00 0.00 0.00 44 1010.7
20260507181532 57 232 0.0 2.0 0.00 0.00 0.00 45 1010.7
20260507180024 58 253 0.0 1.0 0.00 0.00 0.00 45 1010.8
20260507174524 59 300 0.0 3.0 0.00 0.00 0.00 43 1010.9
20260507173021 58 294 0.0 0.0 0.00 0.00 0.00 45 1010.8
20260507171520 60 221 0.0 7.0 0.00 0.00 0.00 44 1010.9
20260507170021 60 278 0.0 6.0 0.00 0.00 0.00 43 1011.0
20260507164517 59 307 0.0 13.0 0.00 0.00 0.00 44 1011.1
20260507163015 58 26 0.0 6.0 0.00 0.00 0.00 42 1011.2
20260507161515 60 276 3.0 10.0 0.00 0.00 0.00 42 1011.2
20260507160011 59 162 2.0 8.0 0.00 0.00 0.00 42 1011.2
20260507154511 58 141 5.0 10.0 0.00 0.00 0.00 44 1011.3
20260507153007 58 105 4.0 10.0 0.00 0.00 0.00 46 1011.5
20260507151507 58 305 1.0 8.0 0.00 0.00 0.00 45 1011.4
20260507150005 57 205 0.0 9.0 0.00 0.00 0.00 49 1011.5
20260507144601 57 195 0.0 8.0 0.00 0.00 0.00 50 1011.7
20260507143101 56 165 1.0 9.0 0.00 0.00 0.00 51 1011.7
20260507141556 55 191 2.0 8.0 0.00 0.00 0.00 53 1011.9
20260507140052 54 16 2.0 9.0 0.00 0.00 0.00 61 1012.0
20260507134552 53 159 0.0 4.0 0.00 0.00 0.00 67 1012.3
20260507133051 52 283 0.0 5.0 0.00 0.00 0.00 67 1012.3
20260507131545 51 222 2.0 6.0 0.00 0.00 0.00 69 1012.3
20260507130056 50 225 2.0 7.0 0.00 0.00 0.00 72 1012.3
20260507124540 49 273 1.0 5.0 0.00 0.00 0.00 75 1012.3
20260507123040 48 288 1.0 5.0 0.00 0.00 0.00 80 1012.3
20260507121530 46 169 0.0 4.0 0.00 0.00 0.00 89 1012.2
20260507120034 43 163 0.0 2.0 0.00 0.00 0.00 96 1012.3
20260507114524 41 183 0.0 1.0 0.00 0.00 0.00 96 1012.3
20260507113024 39 134 0.0 0.0 0.00 0.00 0.00 95 1012.3
20260507111523 39 195 0.0 1.0 0.00 0.00 0.00 95 1012.2
20260507110031 0 0.0 0.0 0.00 0.00 0.00 1012.1
20260507104515 0 0.0 0.0 0.00 0.00 0.00 1012.0
20260507103009 0 0.0 0.0 0.00 0.00 0.00 1012.0
20260507101603 0 0.0 0.0 0.00 0.00 0.00 1011.9
20260507100111 0 0.0 0.0 0.00 0.00 0.00 1011.9
20260507094551 0 0.0 0.0 0.00 0.00 0.00 1011.8
20260507093047 0 0.0 0.0 0.00 0.00 0.00 1011.9
20260507091543 0 0.0 0.0 0.00 0.00 0.00 1012.0
20260507090041 0 0.0 0.0 0.00 0.00 0.00 1012.0
20260507084539 0 0.0 0.0 0.00 0.03 0.00 1012.1
20260507083035 0 0.0 0.0 0.00 0.03 0.00 1012.0
20260507081526 0 0.0 0.0 0.00 0.03 0.00 1012.0
20260507080021 0 0.0 0.0 0.00 0.03 0.00 1012.2
20260507074519 36 342 0.0 0.0 0.00 0.14 0.00 93 1012.1
20260507073017 37 343 0.0 0.0 0.00 0.14 0.00 93 1012.2
20260507071515 37 343 0.0 0.0 0.00 0.14 0.00 93 1012.1
20260507070014 37 343 0.0 0.0 0.00 0.14 0.00 93 1012.2